Time,TemperatureF,DewpointF,PressureIn,WindDirection,WindDirectionDegrees,WindSpeedMPH,WindSpeedGustMPH,Humidity,HourlyPrecipIn,Conditions,Clouds,dailyrainin,SolarRadiationWatts/m^2,SoftwareType,DateUTC
2013-01-06 00:00:00,22.6,19.0,30.17,West,271,0.0,0.0,86,0.00,RA,,0.00,0.0,WeatherDisplay:10.37,2013-01-06 05:00:00,
2013-01-06 00:01:00,22.7,19.1,30.17,West,271,0.0,0.0,86,0.00,RA,,0.00,0.0,WeatherDisplay:10.37,2013-01-06 05:01:00,
2013-01-06 00:02:00,22.7,19.1,30.17,West,271,0.0,1.1,86,0.00,RA,,0.00,0.0,WeatherDisplay:10.37,2013-01-06 05:02:00,
2013-01-06 00:08:00,22.8,19.5,30.16,West,271,0.0,0.0,87,0.00,RA,,0.00,0.0,WeatherDisplay:10.37,2013-01-06 05:08:00,
2013-01-06 00:13:00,22.8,19.5,30.16,West,271,0.0,0.0,87,0.00,CLR,,0.00,0.0,WeatherDisplay:10.37,2013-01-06 05:13:00,
2013-01-06 00:18:00,23.0,19.4,30.16,West,271,0.0,0.0,86,0.00,CLR,,0.00,0.0,WeatherDisplay:10.37,2013-01-06 05:18:00,
2013-01-06 00:23:00,23.1,19.5,30.15,West,271,0.0,1.1,86,0.00,CLR,,0.00,0.0,WeatherDisplay:10.37,2013-01-06 05:23:00,
2013-01-06 00:28:00,23.0,19.4,30.15,West,271,0.0,0.0,86,0.00,CLR,,0.00,0.0,WeatherDisplay:10.37,2013-01-06 05:28:00,
2013-01-06 00:33:00,23.2,19.6,30.15,West,271,0.0,1.1,86,0.00,CLR,,0.00,0.0,WeatherDisplay:10.37,2013-01-06 05:33:00,
2013-01-06 00:38:00,23.6,20.0,30.14,West,271,0.0,0.0,86,0.00,CLR,,0.00,0.0,WeatherDisplay:10.37,2013-01-06 05:38:00,
2013-01-06 00:43:00,23.6,20.0,30.14,West,271,0.0,0.0,86,0.00,CLR,,0.00,0.0,WeatherDisplay:10.37,2013-01-06 05:43:00,
2013-01-06 00:48:00,23.6,20.0,30.15,West,271,0.0,0.0,86,0.00,CLR,,0.00,0.0,WeatherDisplay:10.37,2013-01-06 05:48:00,
2013-01-06 00:53:00,23.7,20.1,30.15,West,271,0.0,0.0,86,0.00,CLR,,0.00,0.0,WeatherDisplay:10.37,2013-01-06 05:53:00,
2013-01-06 00:58:00,23.8,20.2,30.15,West,271,0.0,0.0,86,0.00,CLR,,0.00,0.0,WeatherDisplay:10.37,2013-01-06 05:58:00,
2013-01-06 01:03:00,23.9,20.3,30.15,West,271,0.0,0.0,86,0.00,CLR,,0.00,0.0,WeatherDisplay:10.37,2013-01-06 06:03:00,
2013-01-06 01:08:00,23.8,20.2,30.17,West,271,0.0,0.0,86,0.00,CLR,,0.00,0.0,WeatherDisplay:10.37,2013-01-06 06:08:00,
2013-01-06 01:13:00,23.7,20.1,30.16,West,271,0.0,0.0,86,0.00,CLR,,0.00,0.0,WeatherDisplay:10.37,2013-01-06 06:13:00,
2013-01-06 01:18:00,24.0,20.4,30.16,West,271,0.0,0.0,86,0.00,CLR,,0.00,0.0,WeatherDisplay:10.37,2013-01-06 06:18:00,
2013-01-06 01:23:00,24.2,20.6,30.17,West,271,0.0,0.0,86,0.00,CLR,,0.00,0.0,WeatherDisplay:10.37,2013-01-06 06:23:00,
2013-01-06 01:28:00,24.3,20.7,30.18,West,271,0.0,0.0,86,0.00,CLR,,0.00,0.0,WeatherDisplay:10.37,2013-01-06 06:28:00,
2013-01-06 01:33:00,24.2,20.6,30.18,West,271,0.0,0.0,86,0.00,CLR,,0.00,0.0,WeatherDisplay:10.37,2013-01-06 06:33:00,
2013-01-06 01:38:00,24.5,20.9,30.18,West,271,0.0,0.0,86,0.00,CLR,,0.00,0.0,WeatherDisplay:10.37,2013-01-06 06:38:00,
2013-01-06 01:43:00,24.6,20.7,30.18,West,271,0.0,0.0,85,0.00,CLR,,0.00,0.0,WeatherDisplay:10.37,2013-01-06 06:43:00,
2013-01-06 01:48:00,24.8,20.9,30.20,West,271,0.0,0.0,85,0.00,CLR,,0.00,0.0,WeatherDisplay:10.37,2013-01-06 06:48:00,
2013-01-06 01:53:00,25.1,20.9,30.19,West,271,0.0,0.0,84,0.00,CLR,,0.00,0.0,WeatherDisplay:10.37,2013-01-06 06:53:00,
2013-01-06 01:58:00,25.2,21.0,30.20,West,270,0.4,2.3,84,0.00,CLR,,0.00,0.0,WeatherDisplay:10.37,2013-01-06 06:58:00,
2013-01-06 02:03:00,25.5,21.1,30.20,West,270,0.0,1.1,83,0.00,CLR,,0.00,0.0,WeatherDisplay:10.37,2013-01-06 07:03:00,
2013-01-06 02:08:00,25.6,20.9,30.20,West,270,0.0,0.0,82,0.00,CLR,,0.00,0.0,WeatherDisplay:10.37,2013-01-06 07:08:00,
2013-01-06 02:13:00,25.6,20.9,30.18,West,270,0.0,0.0,82,0.00,CLR,,0.00,0.0,WeatherDisplay:10.37,2013-01-06 07:13:00,
2013-01-06 02:18:00,25.7,21.0,30.18,West,270,0.0,0.0,82,0.00,CLR,,0.00,0.0,WeatherDisplay:10.37,2013-01-06 07:18:00,
2013-01-06 02:23:00,25.7,21.0,30.18,West,269,0.0,0.0,82,0.00,CLR,,0.00,0.0,WeatherDisplay:10.37,2013-01-06 07:23:00,
2013-01-06 02:28:00,25.8,21.1,30.17,West,269,0.0,0.0,82,0.00,CLR,,0.00,0.0,WeatherDisplay:10.37,2013-01-06 07:28:00,
2013-01-06 02:33:00,25.7,21.3,30.17,West,269,0.0,0.0,83,0.00,CLR,,0.00,0.0,WeatherDisplay:10.37,2013-01-06 07:33:00,
2013-01-06 02:38:00,25.7,21.3,30.17,West,269,0.0,0.0,83,0.00,CLR,,0.00,0.0,WeatherDisplay:10.37,2013-01-06 07:38:00,
2013-01-06 02:43:00,25.8,21.3,30.17,West,269,0.0,0.0,83,0.00,CLR,,0.00,0.0,WeatherDisplay:10.37,2013-01-06 07:43:00,
2013-01-06 02:48:00,25.9,21.4,30.16,West,269,0.0,0.0,83,0.00,CLR,,0.00,0.0,WeatherDisplay:10.37,2013-01-06 07:48:00,
2013-01-06 02:53:00,26.0,21.5,30.16,West,269,0.0,0.0,83,0.00,CLR,,0.00,0.0,WeatherDisplay:10.37,2013-01-06 07:53:00,
2013-01-06 02:58:00,26.0,21.3,30.16,West,269,0.0,0.0,82,0.00,CLR,,0.00,0.0,WeatherDisplay:10.37,2013-01-06 07:58:00,
2013-01-06 03:03:00,26.0,21.5,30.15,West,269,0.0,0.0,83,0.00,CLR,,0.00,0.0,WeatherDisplay:10.37,2013-01-06 08:03:00,
2013-01-06 03:08:00,26.0,21.5,30.14,West,269,0.0,0.0,83,0.00,CLR,,0.00,0.0,WeatherDisplay:10.37,2013-01-06 08:08:00,
2013-01-06 03:13:00,26.0,21.8,30.15,West,269,0.0,0.0,84,0.00,CLR,,0.00,0.0,WeatherDisplay:10.37,2013-01-06 08:13:00,
2013-01-06 03:18:00,26.1,21.6,30.14,West,269,0.0,0.0,83,0.00,CLR,,0.00,0.0,WeatherDisplay:10.37,2013-01-06 08:18:00,
2013-01-06 03:23:00,26.3,21.8,30.15,West,269,0.0,0.0,83,0.00,CLR,,0.00,0.0,WeatherDisplay:10.37,2013-01-06 08:23:00,
2013-01-06 03:28:00,26.4,21.7,30.13,West,269,0.0,0.0,82,0.00,CLR,,0.00,0.0,WeatherDisplay:10.37,2013-01-06 08:28:00,
2013-01-06 03:33:00,26.2,21.5,30.14,West,269,0.0,0.0,82,0.00,CLR,,0.00,0.0,WeatherDisplay:10.37,2013-01-06 08:33:00,
2013-01-06 03:38:00,26.4,21.7,30.13,West,269,0.0,0.0,82,0.00,CLR,,0.00,0.0,WeatherDisplay:10.37,2013-01-06 08:38:00,
2013-01-06 03:43:00,26.5,21.7,30.14,West,269,0.0,0.0,82,0.00,CLR,,0.00,0.0,WeatherDisplay:10.37,2013-01-06 08:43:00,
2013-01-06 03:48:00,26.4,21.7,30.12,West,269,0.0,0.0,82,0.00,CLR,,0.00,0.0,WeatherDisplay:10.37,2013-01-06 08:48:00,
2013-01-06 03:53:00,26.3,21.8,30.12,West,269,0.0,0.0,83,0.00,CLR,,0.00,0.0,WeatherDisplay:10.37,2013-01-06 08:53:00,
2013-01-06 03:58:00,26.2,22.0,30.11,West,269,0.0,0.0,84,0.00,CLR,,0.00,0.0,WeatherDisplay:10.37,2013-01-06 08:58:00,
2013-01-06 04:03:00,26.4,21.9,30.12,West,269,0.0,0.0,83,0.00,CLR,,0.00,0.0,WeatherDisplay:10.37,2013-01-06 09:03:00,
2013-01-06 04:08:00,26.6,22.1,30.12,West,269,0.0,1.1,83,0.00,CLR,,0.00,0.0,WeatherDisplay:10.37,2013-01-06 09:08:00,
2013-01-06 04:13:00,26.7,21.9,30.11,West,261,0.0,0.0,82,0.00,CLR,,0.00,0.0,WeatherDisplay:10.37,2013-01-06 09:13:00,
2013-01-06 04:18:00,26.8,22.3,30.11,WSW,248,0.0,0.0,83,0.00,CLR,,0.00,0.0,WeatherDisplay:10.37,2013-01-06 09:18:00,
2013-01-06 04:23:00,26.8,22.0,30.11,WSW,248,0.1,1.1,82,0.00,CLR,,0.00,0.0,WeatherDisplay:10.37,2013-01-06 09:23:00,
2013-01-06 04:28:00,26.9,22.1,30.10,WSW,248,0.0,0.0,82,0.00,CLR,,0.00,0.0,WeatherDisplay:10.37,2013-01-06 09:28:00,
2013-01-06 04:33:00,26.9,21.6,30.10,WSW,248,0.0,0.0,80,0.00,CLR,,0.00,0.0,WeatherDisplay:10.37,2013-01-06 09:33:00,
2013-01-06 04:38:00,27.0,21.9,30.10,WSW,248,0.0,0.0,81,0.00,CLR,,0.00,0.0,WeatherDisplay:10.37,2013-01-06 09:38:00,
2013-01-06 04:43:00,27.0,21.9,30.10,WSW,248,0.0,0.0,81,0.00,CLR,,0.00,0.0,WeatherDisplay:10.37,2013-01-06 09:43:00,
2013-01-06 04:48:00,27.0,21.9,30.10,WSW,248,0.0,0.0,81,0.00,CLR,,0.00,0.0,WeatherDisplay:10.37,2013-01-06 09:48:00,
2013-01-06 04:53:00,27.0,21.9,30.09,WSW,248,0.0,0.0,81,0.00,CLR,,0.00,0.0,WeatherDisplay:10.37,2013-01-06 09:53:00,
2013-01-06 04:58:00,27.0,21.9,30.10,WSW,248,0.0,1.1,81,0.00,CLR,,0.00,0.0,WeatherDisplay:10.37,2013-01-06 09:58:00,
2013-01-06 05:03:00,26.8,22.0,30.09,WSW,248,0.0,0.0,82,0.00,CLR,,0.00,0.0,WeatherDisplay:10.37,2013-01-06 10:03:00,
2013-01-06 05:08:00,26.8,22.6,30.09,WSW,248,0.0,1.1,84,0.00,CLR,,0.00,0.0,WeatherDisplay:10.37,2013-01-06 10:08:00,
2013-01-06 05:13:00,26.7,22.8,30.08,WSW,248,0.0,0.0,85,0.00,CLR,,0.00,0.0,WeatherDisplay:10.37,2013-01-06 10:13:00,
2013-01-06 05:18:00,26.7,22.8,30.08,WSW,248,0.1,1.1,85,0.00,CLR,,0.00,0.0,WeatherDisplay:10.37,2013-01-06 10:18:00,
2013-01-06 05:23:00,26.8,23.2,30.09,WSW,248,0.0,1.1,86,0.00,CLR,,0.00,0.0,WeatherDisplay:10.37,2013-01-06 10:23:00,
2013-01-06 05:28:00,26.8,23.4,30.08,SW,230,0.5,3.5,87,0.00,CLR,,0.00,0.0,WeatherDisplay:10.37,2013-01-06 10:28:00,
2013-01-06 05:33:00,26.8,23.4,30.08,SW,215,0.5,1.0,87,0.00,CLR,,0.00,0.0,WeatherDisplay:10.37,2013-01-06 10:33:00,
2013-01-06 05:38:00,26.8,23.7,30.07,SW,215,0.0,1.1,88,0.00,CLR,,0.00,0.0,WeatherDisplay:10.37,2013-01-06 10:38:00,
2013-01-06 05:43:00,26.8,23.7,30.06,SW,215,0.0,1.0,88,0.00,CLR,,0.00,0.0,WeatherDisplay:10.37,2013-01-06 10:43:00,
2013-01-06 05:48:00,26.8,24.0,30.06,SSW,207,0.0,0.0,89,0.00,CLR,,0.00,0.0,WeatherDisplay:10.37,2013-01-06 10:48:00,
2013-01-06 05:53:00,26.7,23.9,30.06,SSW,207,0.0,0.0,89,0.00,CLR,,0.00,0.0,WeatherDisplay:10.37,2013-01-06 10:53:00,
2013-01-06 05:58:00,26.5,23.7,30.06,SSW,207,0.0,1.1,89,0.00,CLR,,0.00,0.0,WeatherDisplay:10.37,2013-01-06 10:58:00,
2013-01-06 06:03:00,26.5,23.7,30.06,SSW,207,0.0,0.0,89,0.00,CLR,,0.00,0.0,WeatherDisplay:10.37,2013-01-06 11:03:00,
2013-01-06 06:08:00,26.5,24.0,30.06,SSW,207,0.0,0.0,90,0.00,CLR,,0.00,0.0,WeatherDisplay:10.37,2013-01-06 11:08:00,
2013-01-06 06:13:00,26.5,24.0,30.07,SSW,207,0.0,0.0,90,0.00,CLR,,0.00,0.0,WeatherDisplay:10.37,2013-01-06 11:13:00,
2013-01-06 06:18:00,26.5,24.0,30.06,SSW,207,0.0,0.0,90,0.00,CLR,,0.00,0.0,WeatherDisplay:10.37,2013-01-06 11:18:00,
2013-01-06 06:23:00,26.4,23.9,30.06,SSW,207,0.0,0.0,90,0.00,CLR,,0.00,0.0,WeatherDisplay:10.37,2013-01-06 11:23:00,
2013-01-06 06:28:00,26.4,23.9,30.06,SSW,207,0.0,0.0,90,0.00,CLR,,0.00,0.0,WeatherDisplay:10.37,2013-01-06 11:28:00,
2013-01-06 06:33:00,26.3,23.8,30.06,SSW,207,0.0,0.0,90,0.00,CLR,,0.00,0.0,WeatherDisplay:10.37,2013-01-06 11:33:00,
2013-01-06 06:38:00,26.3,23.8,30.06,SSW,207,0.0,0.0,90,0.00,CLR,,0.00,0.0,WeatherDisplay:10.37,2013-01-06 11:38:00,
2013-01-06 06:43:00,26.3,24.0,30.06,SSW,207,0.0,0.0,91,0.00,CLR,,0.00,0.0,WeatherDisplay:10.37,2013-01-06 11:43:00,
2013-01-06 06:48:00,26.2,23.9,30.06,SSW,207,0.0,0.0,91,0.00,CLR,,0.00,0.0,WeatherDisplay:10.37,2013-01-06 11:48:00,
2013-01-06 06:53:00,26.2,23.9,30.06,SSW,207,0.0,0.0,91,0.00,CLR,,0.00,0.0,WeatherDisplay:10.37,2013-01-06 11:53:00,
2013-01-06 06:58:00,26.3,24.0,30.06,SSW,207,0.0,0.0,91,0.00,CLR,,0.00,0.0,WeatherDisplay:10.37,2013-01-06 11:58:00,
2013-01-06 07:03:00,26.3,24.0,30.06,SSW,207,0.0,0.0,91,0.00,OVC,,0.00,0.0,WeatherDisplay:10.37,2013-01-06 12:03:00,
2013-01-06 07:08:00,26.2,23.9,30.06,SSW,207,0.0,0.0,91,0.00,OVC,,0.00,0.0,WeatherDisplay:10.37,2013-01-06 12:08:00,
2013-01-06 07:13:00,26.2,23.9,30.05,SSW,207,0.1,1.1,91,0.00,OVC,,0.00,0.0,WeatherDisplay:10.37,2013-01-06 12:13:00,
2013-01-06 07:18:00,26.1,23.8,30.05,SSW,207,0.0,0.0,91,0.00,OVC,,0.00,0.0,WeatherDisplay:10.37,2013-01-06 12:18:00,
2013-01-06 07:23:00,26.0,23.7,30.05,SSW,207,0.0,0.0,91,0.00,OVC,,0.00,0.0,WeatherDisplay:10.37,2013-01-06 12:23:00,
2013-01-06 07:28:00,25.9,23.6,30.05,SSW,207,0.0,1.1,91,0.00,BKN,,0.00,5.0,WeatherDisplay:10.37,2013-01-06 12:28:00,
2013-01-06 07:33:00,26.0,23.7,30.05,SSW,207,0.0,0.0,91,0.00,BKN,,0.00,5.0,WeatherDisplay:10.37,2013-01-06 12:33:00,
2013-01-06 07:38:00,26.1,23.8,30.05,SSW,207,0.0,0.0,91,0.00,BKN,,0.00,7.0,WeatherDisplay:10.37,2013-01-06 12:38:00,
2013-01-06 07:43:00,26.1,24.1,30.05,SSW,207,0.0,0.0,92,0.00,BKN,,0.00,14.0,WeatherDisplay:10.37,2013-01-06 12:43:00,
2013-01-06 07:48:00,26.1,24.1,30.05,SSW,207,0.0,0.0,92,0.00,BKN,,0.00,16.0,WeatherDisplay:10.37,2013-01-06 12:48:00,
2013-01-06 07:53:00,26.1,24.1,30.05,SSW,207,0.0,0.0,92,0.00,BKN,,0.00,16.0,WeatherDisplay:10.37,2013-01-06 12:53:00,
2013-01-06 07:58:00,26.1,24.1,30.04,South,188,0.0,0.0,92,0.00,BKN,,0.00,12.0,WeatherDisplay:10.37,2013-01-06 12:58:00,
2013-01-06 08:03:00,26.0,24.0,30.04,South,188,0.0,0.0,92,0.00,BKN,,0.00,12.0,WeatherDisplay:10.37,2013-01-06 13:03:00,
2013-01-06 08:08:00,25.9,23.9,30.04,South,188,0.0,0.0,92,0.00,BKN,,0.00,18.0,WeatherDisplay:10.37,2013-01-06 13:08:00,
2013-01-06 08:13:00,25.8,23.8,30.04,South,188,0.0,1.1,92,0.00,BKN,,0.00,28.0,WeatherDisplay:10.37,2013-01-06 13:13:00,
2013-01-06 08:18:00,26.2,24.2,30.04,South,188,0.1,1.0,92,0.00,BKN,,0.00,32.0,WeatherDisplay:10.37,2013-01-06 13:18:00,
2013-01-06 08:23:00,27.4,25.4,30.04,SSW,199,0.2,1.1,92,0.00,BKN,,0.00,46.0,WeatherDisplay:10.37,2013-01-06 13:23:00,
2013-01-06 08:28:00,28.1,26.1,30.04,SSW,196,0.3,2.3,92,0.00,BKN,,0.00,44.0,WeatherDisplay:10.37,2013-01-06 13:28:00,
2013-01-06 08:33:00,28.5,26.5,30.04,South,170,0.9,1.1,92,0.00,BKN,,0.00,74.0,WeatherDisplay:10.37,2013-01-06 13:33:00,
2013-01-06 08:38:00,29.0,27.0,30.04,South,182,0.7,3.5,92,0.00,BKN,,0.00,53.0,WeatherDisplay:10.37,2013-01-06 13:38:00,
2013-01-06 08:43:00,29.3,27.0,30.04,SE,139,0.2,2.3,91,0.00,BKN,,0.00,44.0,WeatherDisplay:10.37,2013-01-06 13:43:00,
2013-01-06 08:48:00,29.5,27.2,30.04,SE,139,0.0,1.1,91,0.00,BKN,,0.00,56.0,WeatherDisplay:10.37,2013-01-06 13:48:00,
2013-01-06 08:53:00,29.8,27.5,30.03,SSE,150,0.8,3.5,91,0.00,BKN,,0.00,49.0,WeatherDisplay:10.37,2013-01-06 13:53:00,
2013-01-06 08:58:00,30.1,27.5,30.03,SSW,209,1.8,3.0,90,0.00,BKN,,0.00,63.0,WeatherDisplay:10.37,2013-01-06 13:58:00,
2013-01-06 09:03:00,30.5,27.6,30.03,SSW,205,0.7,3.5,89,0.00,BKN,,0.00,53.0,WeatherDisplay:10.37,2013-01-06 14:03:00,
2013-01-06 09:08:00,30.9,28.0,30.03,West,259,1.6,4.6,89,0.00,BKN,,0.00,77.0,WeatherDisplay:10.37,2013-01-06 14:08:00,
2013-01-06 09:13:00,31.2,28.1,30.03,SSE,157,1.5,2.3,88,0.00,BKN,,0.00,65.0,WeatherDisplay:10.37,2013-01-06 14:13:00,
2013-01-06 09:18:00,31.4,28.0,30.03,SSE,150,0.6,2.3,87,0.00,SCT,,0.00,160.0,WeatherDisplay:10.37,2013-01-06 14:18:00,
2013-01-06 09:23:00,31.6,28.2,30.03,SSE,148,2.6,4.0,87,0.00,SCT,,0.00,132.0,WeatherDisplay:10.37,2013-01-06 14:23:00,
2013-01-06 09:28:00,31.9,28.2,30.03,SSE,158,1.2,5.0,86,0.00,BKN,,0.00,130.0,WeatherDisplay:10.37,2013-01-06 14:28:00,
2013-01-06 09:33:00,32.3,28.3,30.03,SSW,202,0.7,3.5,85,0.00,SCT,,0.00,209.0,WeatherDisplay:10.37,2013-01-06 14:33:00,
2013-01-06 09:38:00,32.7,28.4,30.03,SSW,202,1.7,4.6,84,0.00,SCT,,0.00,132.0,WeatherDisplay:10.37,2013-01-06 14:38:00,
2013-01-06 09:43:00,33.1,28.8,30.03,SSE,151,2.5,4.0,84,0.00,SCT,,0.00,179.0,WeatherDisplay:10.37,2013-01-06 14:43:00,
2013-01-06 09:48:00,33.5,28.6,30.03,SSE,155,1.4,4.6,82,0.00,SCT,,0.00,160.0,WeatherDisplay:10.37,2013-01-06 14:48:00,
2013-01-06 09:53:00,33.8,28.6,30.03,South,178,3.1,4.6,81,0.00,SCT,,0.00,181.0,WeatherDisplay:10.37,2013-01-06 14:53:00,
2013-01-06 09:58:00,34.0,28.8,30.02,South,173,4.3,5.8,81,0.00,SCT,,0.00,202.0,WeatherDisplay:10.37,2013-01-06 14:58:00,
2013-01-06 10:03:00,34.3,28.8,30.02,West,265,3.8,5.8,80,0.00,FEW,,0.00,287.0,WeatherDisplay:10.37,2013-01-06 15:03:00,
2013-01-06 10:08:00,34.5,29.0,30.02,SSW,203,3.8,9.2,80,0.00,CLR,,0.00,304.0,WeatherDisplay:10.37,2013-01-06 15:08:00,
2013-01-06 10:13:00,34.7,29.2,30.02,South,170,1.8,9.2,80,0.00,CLR,,0.00,309.0,WeatherDisplay:10.37,2013-01-06 15:13:00,
2013-01-06 10:18:00,35.1,29.2,30.01,WNW,284,6.7,11.0,79,0.00,CLR,,0.00,327.0,WeatherDisplay:10.37,2013-01-06 15:18:00,
2013-01-06 10:23:00,35.4,29.5,30.01,WSW,244,2.0,4.0,79,0.00,CLR,,0.00,327.0,WeatherDisplay:10.37,2013-01-06 15:23:00,
2013-01-06 10:28:00,35.9,30.0,30.01,South,187,4.8,6.9,79,0.00,CLR,,0.00,338.0,WeatherDisplay:10.37,2013-01-06 15:28:00,
2013-01-06 10:33:00,36.2,30.0,30.01,SSW,200,3.1,5.8,78,0.00,CLR,,0.00,345.0,WeatherDisplay:10.37,2013-01-06 15:33:00,
2013-01-06 10:38:00,36.5,30.0,30.00,South,186,2.3,8.1,77,0.00,CLR,,0.00,322.0,WeatherDisplay:10.37,2013-01-06 15:38:00,
2013-01-06 10:43:00,36.3,29.8,30.00,SSW,211,3.8,7.0,77,0.00,CLR,,0.00,329.0,WeatherDisplay:10.37,2013-01-06 15:43:00,
2013-01-06 10:48:00,36.3,29.8,30.00,South,176,1.6,5.8,77,0.00,CLR,,0.00,297.0,WeatherDisplay:10.37,2013-01-06 15:48:00,
2013-01-06 10:53:00,36.5,30.0,29.99,South,190,1.2,3.5,77,0.00,CLR,,0.00,374.0,WeatherDisplay:10.37,2013-01-06 15:53:00,
2013-01-06 10:58:00,36.7,30.2,29.99,NNW,328,5.6,12.7,77,0.00,CLR,,0.00,374.0,WeatherDisplay:10.37,2013-01-06 15:58:00,
2013-01-06 11:03:00,36.9,30.4,29.99,WNW,285,1.6,5.0,77,0.00,CLR,,0.00,329.0,WeatherDisplay:10.37,2013-01-06 16:03:00,
2013-01-06 11:08:00,37.3,30.4,29.98,SSE,165,1.5,9.2,76,0.00,SCT,,0.00,199.0,WeatherDisplay:10.37,2013-01-06 16:08:00,
2013-01-06 11:13:00,37.5,30.3,29.97,SSW,200,1.9,7.0,75,0.00,FEW,,0.00,322.0,WeatherDisplay:10.37,2013-01-06 16:13:00,
2013-01-06 11:18:00,38.0,30.8,29.97,SSW,211,4.7,5.8,75,0.00,FEW,,0.00,355.0,WeatherDisplay:10.37,2013-01-06 16:18:00,
2013-01-06 11:23:00,38.3,31.1,29.97,SSE,153,3.2,6.9,75,0.00,CLR,,0.00,396.0,WeatherDisplay:10.37,2013-01-06 16:23:00,
2013-01-06 11:28:00,38.2,30.3,29.97,South,180,3.6,5.8,73,0.01,RA,,0.01,290.0,WeatherDisplay:10.37,2013-01-06 16:28:00,
2013-01-06 11:33:00,38.4,30.5,29.96,WSW,238,2.9,3.5,73,0.01,RA,,0.01,376.0,WeatherDisplay:10.37,2013-01-06 16:33:00,
2013-01-06 11:38:00,38.5,30.6,29.96,SW,225,0.8,10.4,73,0.01,CLR,,0.01,401.0,WeatherDisplay:10.37,2013-01-06 16:38:00,
2013-01-06 11:43:00,38.5,30.3,29.96,South,173,2.0,4.6,72,0.01,CLR,,0.01,401.0,WeatherDisplay:10.37,2013-01-06 16:43:00,
2013-01-06 11:48:00,38.7,30.4,29.95,South,172,4.2,8.1,72,0.02,RA,,0.02,403.0,WeatherDisplay:10.37,2013-01-06 16:48:00,
2013-01-06 11:53:00,39.0,30.7,29.94,SSW,201,1.6,5.8,72,0.02,RA,,0.02,343.0,WeatherDisplay:10.37,2013-01-06 16:53:00,
2013-01-06 11:58:00,39.2,30.6,29.94,South,183,1.9,12.7,71,0.02,CLR,,0.02,401.0,WeatherDisplay:10.37,2013-01-06 16:58:00,
2013-01-06 12:03:00,39.3,31.0,29.94,WNW,297,3.5,4.6,72,0.02,CLR,,0.02,399.0,WeatherDisplay:10.37,2013-01-06 17:03:00,
2013-01-06 12:08:00,39.8,30.8,29.94,WSW,244,4.1,6.0,70,0.02,CLR,,0.02,397.0,WeatherDisplay:10.37,2013-01-06 17:08:00,
2013-01-06 12:13:00,39.7,30.7,29.94,SW,234,4.0,9.2,70,0.02,CLR,,0.03,394.0,WeatherDisplay:10.37,2013-01-06 17:13:00,
2013-01-06 12:18:00,39.9,30.9,29.94,SSE,163,1.2,3.5,70,0.03,RA,,0.03,396.0,WeatherDisplay:10.37,2013-01-06 17:18:00,
2013-01-06 12:23:00,40.2,30.8,29.93,SSW,200,2.9,4.6,69,0.03,RA,,0.03,390.0,WeatherDisplay:10.37,2013-01-06 17:23:00,
2013-01-06 12:28:00,40.5,31.1,29.93,WSW,239,4.1,6.9,69,0.02,CLR,,0.03,394.0,WeatherDisplay:10.37,2013-01-06 17:28:00,
2013-01-06 12:33:00,40.8,31.1,29.93,SSW,205,2.0,4.0,68,0.03,RA,,0.04,392.0,WeatherDisplay:10.37,2013-01-06 17:33:00,
2013-01-06 12:38:00,40.7,31.0,29.93,SSW,204,4.0,8.1,68,0.03,RA,,0.04,390.0,WeatherDisplay:10.37,2013-01-06 17:38:00,
2013-01-06 12:43:00,40.8,31.1,29.93,WSW,238,7.1,12.7,68,0.03,CLR,,0.04,387.0,WeatherDisplay:10.37,2013-01-06 17:43:00,
2013-01-06 12:48:00,41.1,31.0,29.93,SSE,151,4.7,8.1,67,0.03,CLR,,0.04,383.0,WeatherDisplay:10.37,2013-01-06 17:48:00,
2013-01-06 12:53:00,41.4,30.9,29.93,West,269,2.0,4.6,66,0.02,CLR,,0.04,374.0,WeatherDisplay:10.37,2013-01-06 17:53:00,
2013-01-06 12:58:00,41.5,31.0,29.92,West,259,0.2,4.0,66,0.03,RA,,0.05,369.0,WeatherDisplay:10.37,2013-01-06 17:58:00,
2013-01-06 13:03:00,41.3,30.4,29.92,ESE,121,0.5,8.1,65,0.03,RA,,0.05,360.0,WeatherDisplay:10.37,2013-01-06 18:03:00,
2013-01-06 13:08:00,41.6,31.1,29.92,South,178,1.0,4.6,66,0.03,CLR,,0.05,357.0,WeatherDisplay:10.37,2013-01-06 18:08:00,
2013-01-06 13:13:00,41.7,31.2,29.92,SW,215,2.8,6.9,66,0.03,CLR,,0.06,345.0,WeatherDisplay:10.37,2013-01-06 18:13:00,
2013-01-06 13:18:00,42.0,31.1,29.92,SSW,209,1.4,6.0,65,0.03,RA,,0.06,318.0,WeatherDisplay:10.37,2013-01-06 18:18:00,
2013-01-06 13:23:00,42.0,31.1,29.92,South,184,1.6,5.8,65,0.03,RA,,0.06,297.0,WeatherDisplay:10.37,2013-01-06 18:23:00,
2013-01-06 13:28:00,42.1,31.2,29.92,South,173,0.5,3.5,65,0.03,CLR,,0.06,258.0,WeatherDisplay:10.37,2013-01-06 18:28:00,
2013-01-06 13:33:00,42.1,30.8,29.92,SSE,150,1.9,5.8,64,0.02,FEW,,0.06,218.0,WeatherDisplay:10.37,2013-01-06 18:33:00,
2013-01-06 13:38:00,42.1,30.8,29.92,WSW,242,2.7,5.0,64,0.02,FEW,,0.06,278.0,WeatherDisplay:10.37,2013-01-06 18:38:00,
2013-01-06 13:43:00,42.6,31.3,29.92,WSW,237,6.6,9.2,64,0.02,CLR,,0.06,306.0,WeatherDisplay:10.37,2013-01-06 18:43:00,
2013-01-06 13:48:00,42.1,30.8,29.92,SSW,193,2.3,6.9,64,0.03,RA,,0.07,236.0,WeatherDisplay:10.37,2013-01-06 18:48:00,
2013-01-06 13:53:00,42.2,30.9,29.92,WSW,255,5.3,6.9,64,0.03,RA,,0.07,211.0,WeatherDisplay:10.37,2013-01-06 18:53:00,
2013-01-06 13:58:00,41.9,30.6,29.92,WSW,242,2.0,4.6,64,0.02,SCT,,0.07,144.0,WeatherDisplay:10.37,2013-01-06 18:58:00,
2013-01-06 14:03:00,41.9,31.0,29.92,West,263,1.6,5.8,65,0.02,BKN,,0.07,102.0,WeatherDisplay:10.37,2013-01-06 19:03:00,
2013-01-06 14:08:00,41.9,31.0,29.92,NNW,329,1.6,1.6,65,0.02,BKN,,0.07,202.0,WeatherDisplay:10.37,2013-01-06 19:08:00,
2013-01-06 14:13:00,41.9,30.6,29.92,SW,229,3.7,5.8,64,0.02,FEW,,0.07,204.0,WeatherDisplay:10.37,2013-01-06 19:13:00,
2013-01-06 14:18:00,41.8,30.9,29.92,WSW,248,0.9,3.5,65,0.01,FEW,,0.07,188.0,WeatherDisplay:10.37,2013-01-06 19:18:00,
2013-01-06 14:23:00,41.9,31.0,29.91,WSW,250,0.7,2.3,65,0.01,SCT,,0.07,77.0,WeatherDisplay:10.37,2013-01-06 19:23:00,
2013-01-06 14:28:00,42.0,31.1,29.92,WSW,253,0.1,2.3,65,0.02,RA,,0.08,160.0,WeatherDisplay:10.37,2013-01-06 19:28:00,
2013-01-06 14:33:00,41.6,31.1,29.91,WSW,248,1.5,3.5,66,0.02,RA,,0.08,193.0,WeatherDisplay:10.37,2013-01-06 19:33:00,
2013-01-06 14:38:00,41.8,30.5,29.92,SW,235,4.7,11.5,64,0.02,FEW,,0.08,165.0,WeatherDisplay:10.37,2013-01-06 19:38:00,
2013-01-06 14:43:00,41.6,30.7,29.92,SW,229,2.1,3.5,65,0.02,FEW,,0.08,144.0,WeatherDisplay:10.37,2013-01-06 19:43:00,
2013-01-06 14:48:00,41.3,30.8,29.92,SW,221,0.6,2.3,66,0.02,SCT,,0.08,74.0,WeatherDisplay:10.37,2013-01-06 19:48:00,
2013-01-06 14:53:00,41.0,30.5,29.92,NW,311,2.2,5.8,66,0.01,BKN,,0.08,72.0,WeatherDisplay:10.37,2013-01-06 19:53:00,
2013-01-06 14:58:00,40.6,30.5,29.92,SW,222,2.2,2.3,67,0.01,BKN,,0.08,62.0,WeatherDisplay:10.37,2013-01-06 19:58:00,
2013-01-06 15:04:00,40.2,30.1,29.92,SW,216,2.2,4.6,67,0.01,BKN,,0.08,42.0,WeatherDisplay:10.37,2013-01-06 20:04:00,
2013-01-06 15:09:00,40.0,29.9,29.92,SSW,207,2.2,4.0,67,0.01,BKN,,0.08,46.0,WeatherDisplay:10.37,2013-01-06 20:09:00,
2013-01-06 15:11:00,39.8,30.1,29.92,West,267,2.2,5.8,68,0.01,BKN,,0.08,42.0,WeatherDisplay:10.37,2013-01-06 20:11:00,
2013-01-06 15:13:00,39.7,30.0,29.91,WNW,296,2.1,6.9,68,0.01,BKN,,0.08,28.0,WeatherDisplay:10.37,2013-01-06 20:13:00,
2013-01-06 15:18:00,39.5,29.8,29.92,ENE,59,0.1,6.9,68,0.01,BKN,,0.08,30.0,WeatherDisplay:10.37,2013-01-06 20:18:00,
2013-01-06 15:23:00,39.3,30.0,29.91,WNW,284,0.0,0.0,69,0.01,BKN,,0.08,32.0,WeatherDisplay:10.37,2013-01-06 20:23:00,
2013-01-06 15:28:00,38.9,29.9,29.91,WNW,292,1.8,4.6,70,0.00,BKN,,0.08,26.0,WeatherDisplay:10.37,2013-01-06 20:28:00,
2013-01-06 15:33:00,38.6,30.0,29.91,WNW,283,1.8,4.6,71,0.00,BKN,,0.08,25.0,WeatherDisplay:10.37,2013-01-06 20:33:00,
2013-01-06 15:38:00,38.5,29.9,29.91,WSW,242,0.7,8.1,71,0.00,BKN,,0.08,23.0,WeatherDisplay:10.37,2013-01-06 20:38:00,
2013-01-06 15:43:00,38.3,29.7,29.91,NW,317,0.7,3.5,71,0.00,BKN,,0.08,23.0,WeatherDisplay:10.37,2013-01-06 20:43:00,
2013-01-06 15:48:00,38.4,29.8,29.92,NNW,335,0.8,2.3,71,0.00,BKN,,0.08,19.0,WeatherDisplay:10.37,2013-01-06 20:48:00,
2013-01-06 15:53:00,38.3,29.7,29.91,ENE,63,0.0,1.1,71,0.00,BKN,,0.08,16.0,WeatherDisplay:10.37,2013-01-06 20:53:00,
2013-01-06 15:58:00,37.7,29.5,29.92,West,279,0.1,1.1,72,0.00,BKN,,0.08,14.0,WeatherDisplay:10.37,2013-01-06 20:58:00,
2013-01-06 16:00:00,37.6,29.4,29.92,NW,308,0.3,3.5,72,0.00,BKN,,0.08,14.0,WeatherDisplay:10.37,2013-01-06 21:00:00,
2013-01-06 16:05:00,37.3,29.4,29.92,NW,308,0.2,1.0,73,0.00,BKN,,0.08,12.0,WeatherDisplay:10.37,2013-01-06 21:05:00,
2013-01-06 16:10:00,36.8,29.3,29.92,NW,308,0.0,0.0,74,0.00,BKN,,0.08,11.0,WeatherDisplay:10.37,2013-01-06 21:10:00,
2013-01-06 16:15:00,36.5,29.3,29.92,NW,308,0.0,0.0,75,0.00,BKN,,0.08,9.0,WeatherDisplay:10.37,2013-01-06 21:15:00,
2013-01-06 16:20:00,36.1,28.9,29.92,NW,308,0.0,0.0,75,0.00,BKN,,0.08,7.0,WeatherDisplay:10.37,2013-01-06 21:20:00,
2013-01-06 16:25:00,35.3,28.8,29.92,NW,308,0.0,0.0,77,0.00,BKN,,0.08,5.0,WeatherDisplay:10.37,2013-01-06 21:25:00,
2013-01-06 16:30:00,34.9,28.7,29.92,NW,308,0.0,0.0,78,0.00,OVC,,0.08,0.0,WeatherDisplay:10.37,2013-01-06 21:30:00,
2013-01-06 16:35:00,34.6,28.4,29.92,NW,308,0.0,0.0,78,0.00,OVC,,0.08,0.0,WeatherDisplay:10.37,2013-01-06 21:35:00,
2013-01-06 16:40:00,33.9,28.4,29.92,NW,308,0.0,0.0,80,0.00,OVC,,0.08,0.0,WeatherDisplay:10.37,2013-01-06 21:40:00,
2013-01-06 16:45:00,33.3,28.1,29.92,NW,308,0.0,0.0,81,0.00,OVC,,0.08,0.0,WeatherDisplay:10.37,2013-01-06 21:45:00,
2013-01-06 16:50:00,32.8,27.9,29.93,NW,308,0.0,0.0,82,0.00,OVC,,0.08,0.0,WeatherDisplay:10.37,2013-01-06 21:50:00,
2013-01-06 16:55:00,32.5,27.6,29.93,NW,308,0.0,0.0,82,0.00,OVC,,0.08,0.0,WeatherDisplay:10.37,2013-01-06 21:55:00,
2013-01-06 17:00:00,32.1,27.5,29.93,NW,308,0.0,0.0,83,0.00,CLR,,0.08,0.0,WeatherDisplay:10.37,2013-01-06 22:00:00,
2013-01-06 17:05:00,31.6,27.3,29.93,NW,308,0.0,0.0,84,0.00,CLR,,0.08,0.0,WeatherDisplay:10.37,2013-01-06 22:05:00,
2013-01-06 17:10:00,31.4,27.1,29.93,NW,308,0.0,0.0,84,0.00,CLR,,0.08,0.0,WeatherDisplay:10.37,2013-01-06 22:10:00,
2013-01-06 17:15:00,31.0,26.7,29.93,NW,308,0.0,0.0,84,0.00,CLR,,0.08,0.0,WeatherDisplay:10.37,2013-01-06 22:15:00,
2013-01-06 17:20:00,31.1,27.1,29.93,NW,308,0.0,0.0,85,0.00,CLR,,0.08,0.0,WeatherDisplay:10.37,2013-01-06 22:20:00,
2013-01-06 17:25:00,30.9,26.9,29.92,NW,308,0.0,0.0,85,0.00,CLR,,0.08,0.0,WeatherDisplay:10.37,2013-01-06 22:25:00,
2013-01-06 17:30:00,30.6,26.6,29.92,NW,308,0.0,0.0,85,0.00,CLR,,0.08,0.0,WeatherDisplay:10.37,2013-01-06 22:30:00,
2013-01-06 17:35:00,30.4,26.7,29.92,NW,308,0.0,0.0,86,0.00,CLR,,0.08,0.0,WeatherDisplay:10.37,2013-01-06 22:35:00,
2013-01-06 17:40:00,30.4,26.7,29.92,NW,308,0.0,0.0,86,0.00,CLR,,0.08,0.0,WeatherDisplay:10.37,2013-01-06 22:40:00,
2013-01-06 17:45:00,30.5,26.8,29.93,NW,308,0.0,0.0,86,0.00,CLR,,0.08,0.0,WeatherDisplay:10.37,2013-01-06 22:45:00,
2013-01-06 17:50:00,30.4,26.7,29.93,NW,308,0.0,0.0,86,0.00,CLR,,0.08,0.0,WeatherDisplay:10.37,2013-01-06 22:50:00,
2013-01-06 17:55:00,30.3,26.6,29.93,NW,308,0.0,0.0,86,0.00,CLR,,0.08,0.0,WeatherDisplay:10.37,2013-01-06 22:55:00,
2013-01-06 18:00:00,30.1,26.7,29.94,NW,308,0.0,0.0,87,0.00,CLR,,0.08,0.0,WeatherDisplay:10.37,2013-01-06 23:00:00,
2013-01-06 18:05:00,30.1,26.7,29.93,NW,308,0.0,0.0,87,0.00,CLR,,0.08,0.0,WeatherDisplay:10.37,2013-01-06 23:05:00,
2013-01-06 18:10:00,29.9,26.5,29.94,NW,308,0.0,0.0,87,0.00,CLR,,0.08,0.0,WeatherDisplay:10.37,2013-01-06 23:10:00,
2013-01-06 18:15:00,29.8,26.4,29.94,NW,308,0.0,0.0,87,0.00,CLR,,0.08,0.0,WeatherDisplay:10.37,2013-01-06 23:15:00,
2013-01-06 18:20:00,29.7,26.3,29.94,NW,308,0.0,0.0,87,0.00,CLR,,0.08,0.0,WeatherDisplay:10.37,2013-01-06 23:20:00,
2013-01-06 18:25:00,29.8,26.7,29.94,NW,308,0.0,0.0,88,0.00,CLR,,0.08,0.0,WeatherDisplay:10.37,2013-01-06 23:25:00,
2013-01-06 18:30:00,29.6,26.5,29.94,NW,308,0.0,0.0,88,0.00,CLR,,0.08,0.0,WeatherDisplay:10.37,2013-01-06 23:30:00,
2013-01-06 18:35:00,29.4,26.3,29.94,NW,308,0.0,0.0,88,0.00,CLR,,0.08,0.0,WeatherDisplay:10.37,2013-01-06 23:35:00,
2013-01-06 18:40:00,29.5,26.4,29.93,NW,308,0.0,0.0,88,0.00,CLR,,0.08,0.0,WeatherDisplay:10.37,2013-01-06 23:40:00,
2013-01-06 18:45:00,29.4,26.6,29.94,NW,308,0.0,0.0,89,0.00,CLR,,0.08,0.0,WeatherDisplay:10.37,2013-01-06 23:45:00,
2013-01-06 18:50:00,29.4,26.6,29.93,NW,308,0.0,0.0,89,0.00,CLR,,0.08,0.0,WeatherDisplay:10.37,2013-01-06 23:50:00,
2013-01-06 18:55:00,29.5,26.7,29.94,NW,308,0.0,0.0,89,0.00,CLR,,0.08,0.0,WeatherDisplay:10.37,2013-01-06 23:55:00,
2013-01-06 19:00:00,29.5,26.7,29.94,NW,308,0.0,0.0,89,0.00,CLR,,0.08,0.0,WeatherDisplay:10.37,2013-01-07 00:00:00,
2013-01-06 19:05:00,29.4,26.3,29.94,NW,308,0.0,0.0,88,0.00,CLR,,0.08,0.0,WeatherDisplay:10.37,2013-01-07 00:05:00,
2013-01-06 19:10:00,29.5,26.4,29.94,NW,308,0.0,0.0,88,0.00,CLR,,0.08,0.0,WeatherDisplay:10.37,2013-01-07 00:10:00,
2013-01-06 19:15:00,29.6,26.8,29.94,NW,308,0.0,0.0,89,0.00,CLR,,0.08,0.0,WeatherDisplay:10.37,2013-01-07 00:15:00,
2013-01-06 19:20:00,29.5,26.7,29.94,NW,308,0.0,0.0,89,0.00,CLR,,0.08,0.0,WeatherDisplay:10.37,2013-01-07 00:20:00,
2013-01-06 19:25:00,29.5,26.7,29.93,NW,308,0.0,0.0,89,0.00,CLR,,0.08,0.0,WeatherDisplay:10.37,2013-01-07 00:25:00,
2013-01-06 19:30:00,29.5,26.7,29.93,NW,308,0.0,0.0,89,0.00,CLR,,0.08,0.0,WeatherDisplay:10.37,2013-01-07 00:30:00,
2013-01-06 19:35:00,29.6,26.8,29.94,NW,308,0.0,0.0,89,0.00,CLR,,0.08,0.0,WeatherDisplay:10.37,2013-01-07 00:35:00,
2013-01-06 19:40:00,29.7,26.9,29.93,NW,308,0.0,0.0,89,0.00,CLR,,0.08,0.0,WeatherDisplay:10.37,2013-01-07 00:40:00,
2013-01-06 19:45:00,29.8,27.2,29.93,NW,308,0.0,0.0,90,0.00,CLR,,0.08,0.0,WeatherDisplay:10.37,2013-01-07 00:45:00,
2013-01-06 19:50:00,30.1,27.3,29.94,NW,308,0.0,0.0,89,0.00,CLR,,0.08,0.0,WeatherDisplay:10.37,2013-01-07 00:50:00,
2013-01-06 19:55:00,30.4,27.5,29.94,NW,308,0.0,0.0,89,0.00,CLR,,0.08,0.0,WeatherDisplay:10.37,2013-01-07 00:55:00,
2013-01-06 20:00:00,30.5,27.6,29.94,NW,308,0.0,0.0,89,0.00,CLR,,0.08,0.0,WeatherDisplay:10.37,2013-01-07 01:00:00,
2013-01-06 20:05:00,30.6,27.7,29.94,NW,308,0.0,0.0,89,0.00,CLR,,0.08,0.0,WeatherDisplay:10.37,2013-01-07 01:05:00,
2013-01-06 20:10:00,30.6,27.7,29.94,NW,308,0.0,0.0,89,0.00,CLR,,0.08,0.0,WeatherDisplay:10.37,2013-01-07 01:10:00,
2013-01-06 20:15:00,30.6,27.7,29.93,NW,308,0.0,0.0,89,0.00,CLR,,0.08,0.0,WeatherDisplay:10.37,2013-01-07 01:15:00,
2013-01-06 20:20:00,30.5,27.6,29.94,NW,308,0.0,0.0,89,0.00,CLR,,0.08,0.0,WeatherDisplay:10.37,2013-01-07 01:20:00,
2013-01-06 20:25:00,30.4,27.5,29.93,NW,308,0.0,0.0,89,0.00,CLR,,0.08,0.0,WeatherDisplay:10.37,2013-01-07 01:25:00,
2013-01-06 20:30:00,30.6,27.7,29.93,NW,308,0.1,1.1,89,0.00,CLR,,0.08,0.0,WeatherDisplay:10.37,2013-01-07 01:30:00,
2013-01-06 20:35:00,30.9,28.0,29.93,NW,308,0.0,0.0,89,0.00,CLR,,0.08,0.0,WeatherDisplay:10.37,2013-01-07 01:35:00,
2013-01-06 20:40:00,31.0,27.9,29.93,NW,308,0.0,1.1,88,0.00,CLR,,0.08,0.0,WeatherDisplay:10.37,2013-01-07 01:40:00,
2013-01-06 20:45:00,31.0,27.9,29.94,NW,308,0.0,0.0,88,0.00,CLR,,0.08,0.0,WeatherDisplay:10.37,2013-01-07 01:45:00,
2013-01-06 20:50:00,30.8,27.7,29.93,NW,308,0.0,0.0,88,0.00,CLR,,0.08,0.0,WeatherDisplay:10.37,2013-01-07 01:50:00,
2013-01-06 20:55:00,30.5,27.4,29.94,WNW,282,0.0,0.0,88,0.00,CLR,,0.08,0.0,WeatherDisplay:10.37,2013-01-07 01:55:00,
2013-01-06 21:00:00,30.3,27.2,29.93,WNW,282,0.0,0.0,88,0.00,CLR,,0.08,0.0,WeatherDisplay:10.37,2013-01-07 02:00:00,
2013-01-06 21:05:00,30.2,27.1,29.94,WNW,282,0.0,0.0,88,0.00,CLR,,0.08,0.0,WeatherDisplay:10.37,2013-01-07 02:05:00,
2013-01-06 21:10:00,30.3,27.2,29.94,WNW,282,0.0,0.0,88,0.00,CLR,,0.08,0.0,WeatherDisplay:10.37,2013-01-07 02:10:00,
2013-01-06 21:15:00,30.4,27.3,29.94,WNW,282,0.0,0.0,88,0.00,CLR,,0.08,0.0,WeatherDisplay:10.37,2013-01-07 02:15:00,
2013-01-06 21:20:00,30.4,27.3,29.94,WNW,282,0.0,0.0,88,0.00,CLR,,0.08,0.0,WeatherDisplay:10.37,2013-01-07 02:20:00,
2013-01-06 21:25:00,30.3,27.2,29.94,WNW,282,0.2,1.0,88,0.00,CLR,,0.08,0.0,WeatherDisplay:10.37,2013-01-07 02:25:00,
2013-01-06 21:30:00,30.2,27.1,29.94,WNW,282,0.0,0.0,88,0.00,CLR,,0.08,0.0,WeatherDisplay:10.37,2013-01-07 02:30:00,
2013-01-06 21:35:00,30.5,27.4,29.94,WNW,282,0.0,0.0,88,0.00,CLR,,0.08,0.0,WeatherDisplay:10.37,2013-01-07 02:35:00,
2013-01-06 21:40:00,30.6,27.5,29.94,WNW,282,0.0,0.0,88,0.00,CLR,,0.08,0.0,WeatherDisplay:10.37,2013-01-07 02:40:00,
2013-01-06 21:45:00,30.9,27.8,29.94,WNW,282,0.0,0.0,88,0.00,CLR,,0.08,0.0,WeatherDisplay:10.37,2013-01-07 02:45:00,
2013-01-06 21:50:00,31.0,27.9,29.94,WNW,282,0.0,0.0,88,0.00,CLR,,0.08,0.0,WeatherDisplay:10.37,2013-01-07 02:50:00,
2013-01-06 21:55:00,31.0,27.9,29.94,WSW,242,1.0,3.5,88,0.00,CLR,,0.08,0.0,WeatherDisplay:10.37,2013-01-07 02:55:00,
2013-01-06 22:00:00,31.1,28.0,29.94,WSW,242,0.0,0.0,88,0.00,CLR,,0.08,0.0,WeatherDisplay:10.37,2013-01-07 03:00:00,
2013-01-06 22:05:00,31.1,28.0,29.94,WSW,242,0.0,0.0,88,0.00,CLR,,0.08,0.0,WeatherDisplay:10.37,2013-01-07 03:05:00,
2013-01-06 22:10:00,31.1,28.0,29.94,WSW,242,0.1,1.1,88,0.00,CLR,,0.08,0.0,WeatherDisplay:10.37,2013-01-07 03:10:00,
2013-01-06 22:15:00,30.9,27.8,29.94,WSW,242,0.0,0.0,88,0.00,CLR,,0.08,0.0,WeatherDisplay:10.37,2013-01-07 03:15:00,
2013-01-06 22:20:00,30.5,27.4,29.94,WSW,242,0.0,0.0,88,0.00,CLR,,0.08,0.0,WeatherDisplay:10.37,2013-01-07 03:20:00,
2013-01-06 22:25:00,30.3,27.2,29.94,WSW,242,0.0,0.0,88,0.00,CLR,,0.08,0.0,WeatherDisplay:10.37,2013-01-07 03:25:00,
2013-01-06 22:30:00,30.0,26.9,29.93,WSW,242,0.0,0.0,88,0.00,CLR,,0.08,0.0,WeatherDisplay:10.37,2013-01-07 03:30:00,
2013-01-06 22:35:00,29.8,26.7,29.93,WSW,242,0.0,0.0,88,0.00,CLR,,0.08,0.0,WeatherDisplay:10.37,2013-01-07 03:35:00,
2013-01-06 22:40:00,29.5,26.4,29.93,WSW,242,0.0,0.0,88,0.00,CLR,,0.08,0.0,WeatherDisplay:10.37,2013-01-07 03:40:00,
2013-01-06 22:45:00,29.2,26.4,29.93,WSW,242,0.0,0.0,89,0.00,CLR,,0.08,0.0,WeatherDisplay:10.37,2013-01-07 03:45:00,
2013-01-06 22:50:00,28.8,26.0,29.93,WSW,242,0.0,0.0,89,0.00,CLR,,0.08,0.0,WeatherDisplay:10.37,2013-01-07 03:50:00,
2013-01-06 22:55:00,28.5,25.7,29.93,WSW,242,0.0,0.0,89,0.00,CLR,,0.08,0.0,WeatherDisplay:10.37,2013-01-07 03:55:00,
2013-01-06 23:00:00,28.3,25.5,29.93,WSW,242,0.0,0.0,89,0.00,CLR,,0.08,0.0,WeatherDisplay:10.37,2013-01-07 04:00:00,
2013-01-06 23:05:00,28.1,25.3,29.93,WSW,242,0.0,1.1,89,0.00,CLR,,0.08,0.0,WeatherDisplay:10.37,2013-01-07 04:05:00,
2013-01-06 23:10:00,27.8,25.0,29.94,WSW,242,0.0,0.0,89,0.00,CLR,,0.08,0.0,WeatherDisplay:10.37,2013-01-07 04:10:00,
2013-01-06 23:15:00,27.5,25.0,29.94,WSW,244,0.3,1.0,90,0.00,CLR,,0.08,0.0,WeatherDisplay:10.37,2013-01-07 04:15:00,
2013-01-06 23:20:00,27.4,24.9,29.94,WSW,244,0.0,0.0,90,0.00,CLR,,0.08,0.0,WeatherDisplay:10.37,2013-01-07 04:20:00,
2013-01-06 23:25:00,27.6,25.1,29.94,WSW,244,0.0,0.0,90,0.00,CLR,,0.08,0.0,WeatherDisplay:10.37,2013-01-07 04:25:00,
2013-01-06 23:30:00,27.6,25.1,29.94,WSW,244,0.0,0.0,90,0.00,CLR,,0.08,0.0,WeatherDisplay:10.37,2013-01-07 04:30:00,
2013-01-06 23:35:00,27.4,24.9,29.93,WSW,244,0.0,0.0,90,0.00,CLR,,0.08,0.0,WeatherDisplay:10.37,2013-01-07 04:35:00,
2013-01-06 23:40:00,27.2,24.7,29.94,WSW,244,0.0,0.0,90,0.00,CLR,,0.08,0.0,WeatherDisplay:10.37,2013-01-07 04:40:00,
2013-01-06 23:45:00,26.9,24.4,29.94,WSW,244,0.0,0.0,90,0.00,CLR,,0.08,0.0,WeatherDisplay:10.37,2013-01-07 04:45:00,
2013-01-06 23:50:00,26.9,24.6,29.94,WSW,244,0.0,0.0,91,0.00,CLR,,0.08,0.0,WeatherDisplay:10.37,2013-01-07 04:50:00,
2013-01-06 23:55:00,26.9,24.6,29.94,WSW,244,0.0,0.0,91,0.00,CLR,,0.08,0.0,WeatherDisplay:10.37,2013-01-07 04:55:00,